Location: Newark
(47.3000°N, 8.0500°E)
Time: 18:04:37
(UTC+00:00)

OTV 5 (USA 277) - Pass Details

Date: 29 August 2019
Orbit: 295 x 339 km, 54.5° (Epoch: 08 September)

Event Time Altitude Azimuth Distance (km) Brightness Sun altitude
Rises 20:41:23 0° 290° (WNW) 1,997 ? -22.4°
Reaches altitude 10° 20:43:46 10° 313° (NW) 1,169 ? -22.7°
Enters shadow 20:45:20 16° 351° (N) 887 ? -22.9°
